Location: Rooftop Observatory
(39.0308°N, 87.1711°W)
Time: 17:58:15
(UTC-05:00)

Daily predictions for brighter satellites

Satellite Brightness Start Highest point End
(mag) Time Altitude Azimuth Time Altitude Azimuth Time Altitude Azimuth
ATLAS 5 CENTAUR R/B 4.3 19:56:57 10° N 20:00:13 15° NE 20:03:36 10° ENE
Cosmos 1634 Rocket 4.5 19:55:39 10° SSE 20:01:26 40° E 20:07:15 10° NNE
Cosmos 1707 Rocket 3.9 19:59:15 10° SSE 20:03:30 46° E 20:07:45 10° NNE
Cosmos 1092 Rocket 4.3 19:57:46 10° N 20:03:58 53° E 20:10:08 10° SSE
HJ-1C 3.8 20:01:15 10° S 20:04:40 71° WSW 20:08:08 10° NNW
Lacrosse 4 Rocket 3.1 20:01:54 10° N 20:05:06 20° NE 20:08:19 10° E
Helios 1B rocket 3.4 20:01:48 10° NE 20:05:16 26° E 20:08:42 10° SSE
USA 186 2.4 20:03:35 10° SE 20:05:57 29° ENE 20:08:28 10° N
Cosmos 2034 Rocket 4.5 20:02:23 10° SSW 20:08:32 68° W 20:14:40 10° N
ERBS 3.6 20:06:33 10° NNW 20:09:37 28° NE 20:12:40 10° ESE
ALOS 3.1 20:05:05 10° S 20:09:40 56° W 20:14:16 10° NNW
Gblst 52 Del rocket 4.4 20:04:35 10° NW 20:10:31 75° SW 20:16:00 10° SE
CENTAUR R/B 3.7 20:05:22 10° SW 20:11:11 49° NW 20:17:50 10° NNE
Cosmos 1939 Rocket 4.3 20:08:50 10° ESE 20:11:54 21° ENE 20:14:57 10° NNE
Cosmos 1486 Rocket 4.1 20:07:44 10° N 20:12:55 59° ENE 20:18:05 10° SSE
Resurs 1-3 3.6 20:16:59 10° SSE 20:21:21 90° SE 20:25:46 10° NNW
Cosmos 1869 Rocket 3.6 20:18:09 10° N 20:22:40 85° E 20:27:08 10° S
Cosmos 2227 4.3 20:17:26 10° NNW 20:23:10 68° ENE 20:28:50 10° SSE
Cosmos 2360 4.3 20:18:14 10° SSW 20:23:57 84° WNW 20:29:44 10° NNE
Cosmos 1408 3.6 20:21:39 10° NNE 20:24:54 28° ENE 20:27:28 14° SE
Atlas Centaur 2 3.8 20:20:11 10° SSW 20:25:54 27° SSE 20:31:32 13° ESE
Molniya-1 3.3 20:28:37 10° SW 20:30:14 49° NW 20:32:15 10° NNE
Abrixas rocket 3.7 20:27:41 10° W 20:30:46 36° NNW 20:33:50 10° NE
Cosmos 2242 Rocket 3.8 20:30:42 10° SSE 20:35:03 49° E 20:39:24 10° NNE
Cosmos 1455 3.1 20:32:43 10° SSW 20:36:25 51° W 20:40:08 10° N
Helios 1A 2.9 20:36:45 10° SSE 20:40:57 74° ENE 20:45:12 10° N
Cosmos 2195 Rocket 4.4 20:35:39 10° N 20:41:45 69° E 20:47:51 10° SSE
CZ-4B DEB 4.5 20:39:11 12° SSE 20:42:22 71° ENE 20:45:55 10° N
Cosmos 2279 Rocket 4.2 20:36:39 10° SSE 20:42:38 50° E 20:48:36 10° NNE
Meteor 2-20 4.4 20:37:27 10° N 20:43:36 84° E 20:49:45 10° S
Cosmos 1503 Rocket 4.1 20:39:06 10° N 20:44:18 58° ENE 20:48:10 17° SE
DELTA 2 R/B (1) 4.3 20:40:29 10° W 20:45:46 43° SSW 20:49:34 18° SE
CZ-3B DEB 3.1 20:43:46 10° WNW 20:46:13 16° WSW 20:47:59 10° SSW
Cosmos 1354 Rocket 4.1 20:43:01 10° NNW 20:48:17 64° ENE 20:52:09 18° SSE
Cosmos 1869 3.5 20:45:28 10° SSW 20:49:22 72° W 20:53:19 10° N
Resurs 01 Rocket 3.2 20:48:30 10° SSW 20:52:33 34° W 20:56:37 10° NNW
OAO 3 Rocket 3.5 20:49:10 10° WSW 20:53:56 53° S 20:56:39 24° ESE
H-2A R/B 4.0 20:52:50 11° ENE 20:53:59 12° ENE 20:55:45 10° NE
SJ-11-01 4.2 20:51:19 16° SSE 20:55:04 72° ENE 20:59:45 10° N
CZ-4B DEB 2.5 20:54:21 25° SSE 20:55:59 86° ENE 20:59:03 10° N
YAOGAN 6 3.2 20:56:56 30° ESE 20:58:02 38° ENE 21:01:26 10° N
FALCON 9 R/B 1.5 20:59:06 10° WSW 21:00:47 26° SSW 21:00:47 26° SSW
Meteor 1-29 3.1 20:58:21 10° N 21:01:50 74° WNW 21:05:16 10° SSW
SPOT 5 4.1 21:04:10 23° E 21:05:20 25° ENE 21:09:10 10° NNE
Cosmos 2263 Rocket 2.5 21:00:23 10° NNW 21:05:48 50° ENE 21:08:25 29° ESE
Meteor 2-10 Rocket 4.1 21:05:37 21° SSE 21:09:12 45° E 21:14:43 10° NNE
Cosmos 2322 Rocket 2.3 21:03:54 10° SSW 21:09:30 78° WNW 21:15:09 10° NNE
Envisat 3.2 21:05:46 12° S 21:10:24 70° WSW 21:15:29 10° NNW
Cosmos 220 Rocket 4.3 21:06:17 10° NNW 21:10:43 69° WSW 21:13:27 23° S
Cosmos 1933 3.2 21:11:30 23° S 21:13:57 76° E 21:17:59 10° N
Sich 1 Rocket 4.2 21:11:45 10° N 21:15:55 37° ENE 21:16:31 35° E
Cosmos 2360 Rocket 2.4 21:15:49 17° S 21:19:56 48° ESE 21:25:21 10° NE
H-2A R/B 4.3 21:23:59 12° ENE 21:23:59 12° ENE 21:25:06 10° NE
Cosmos 1825 3.2 21:21:22 10° NNW 21:24:59 43° W 21:27:16 20° SSW
USA 234 3.3 21:22:53 29° SE 21:26:28 76° SW 21:33:02 10° NW
Cosmos 2322 3.9 21:25:28 31° SSE 21:27:47 48° ESE 21:33:15 10° NE
Cosmos 1908 Rocket 3.7 21:24:17 10° N 21:28:31 50° E 21:28:49 49° E
SEDSat Delta rocket 4.2 21:24:45 10° WSW 21:29:51 38° S 21:30:35 37° SSE
NOAA 11 4.3 21:28:03 39° SE 21:29:55 59° ENE 21:35:19 10° N
SL-16 R/B 3.2 21:31:53 10° SW 21:37:20 47° WNW 21:42:48 10° NNE
Cosmos 1862 4.2 21:34:50 10° NNW 21:38:43 47° W 21:40:18 30° SSW
SPOT 1/Viking Rocket 4.1 21:40:22 39° E 21:40:53 40° ENE 21:45:43 10° N
Cosmos 1782 Rocket 4.2 21:38:23 10° N 21:41:59 39° ENE 21:41:59 39° ENE
MetOp-B 4.0 21:42:09 50° SSE 21:43:35 77° ENE 21:48:56 10° N
Lacrosse 4 Rocket 2.5 21:39:53 10° NW 21:43:58 41° WSW 21:45:08 33° SSW
ERS-1 Rocket 3.1 21:42:09 38° S 21:44:04 70° WSW 21:49:05 10° NNW
Okean 2 Rocket 4.2 21:41:42 10° NNE 21:44:59 30° NE 21:44:59 30° NE
ATLAS 5 CENTAUR R/B 2.5 21:40:01 10° NNW 21:46:01 63° NE 21:47:45 46° ESE
ERBS 4.2 21:43:21 10° WNW 21:46:04 24° WSW 21:46:04 24° WSW
Cosmos 1733 Rocket 4.4 21:45:02 10° NNW 21:49:08 37° W 21:51:21 22° SW
Milstar 3 3.7 21:46:33 10° WSW 21:52:36 29° SSW 21:53:09 29° S
ARGOS 3.0 21:52:58 61° SE 21:53:47 73° ENE 21:59:09 10° N
SeaSat 1 2.3 21:57:02 68° E 21:57:22 71° ENE 22:02:19 10° NNW
Cosmos 2278 Rocket 4.2 21:56:23 10° NNE 21:59:21 14° NE 22:00:07 14° ENE
Meteor 1-26 Rocket 4.3 21:58:32 32° SSW 22:01:14 74° W 22:07:01 10° N
Okean 1-7 3.6 22:07:56 50° NNE 22:07:56 50° NNE 22:11:15 10° N
Cosmos 1777 Rocket 4.5 22:01:51 10° N 22:06:40 47° ENE 22:06:40 47° ENE
Terra 3.1 22:10:04 29° NE 22:10:04 29° NE 22:13:15 10° N
Cosmos 1844 Rocket 3.5 22:04:01 10° N 22:09:04 36° ENE 22:09:04 36° ENE
SL-08 RB Rocket 3.8 22:09:48 72° N 22:09:48 72° N 22:13:57 10° N
USA 229 DEB 3.5 22:03:56 10° SSW 22:10:45 85° ESE 22:17:43 10° NE
USA 229 3.5 22:04:02 10° SSW 22:10:50 84° ESE 22:17:48 10° NE
Cosmos 1703 Rocket 4.1 22:14:11 55° W 22:14:17 56° W 22:18:39 10° N
Atlas Centaur 2 3.3 22:07:39 10° WSW 22:14:12 43° S 22:14:12 43° S
Cosmos 2266 Rocket 4.1 22:10:18 10° NNW 22:16:32 70° W 22:18:12 50° SSW
Cosmos 2221 Rocket 4.2 22:21:33 54° NW 22:21:33 54° NW 22:25:13 10° N
Nimbus 7 Rocket 4.5 22:16:34 10° N 22:22:31 76° WNW 22:24:01 52° SW
MOS 1-B Rocket 4.0 22:22:54 61° SSW 22:23:48 70° WSW 22:29:29 10° NNW
Cosmos 2219 Rocket 3.7 22:28:37 24° NE 22:28:37 24° NE 22:30:58 10° NE
Meteor 1-10 Rocket 4.4 22:29:38 65° NE 22:29:38 65° NE 22:34:50 10° NNE
CZ-4C R/B 4.1 22:24:02 10° NNW 22:30:01 28° NE 22:32:09 25° ENE
H-2A R/B 2.2 22:33:27 65° NW 22:33:27 65° NW 22:37:43 10° NNW
Cosmos 1867 3.8 22:27:48 10° NW 22:32:45 63° W 22:32:45 63° W
Cosmos 1244 Rocket 4.4 22:31:54 10° N 22:37:58 79° NE 22:37:58 79° NE
ASTEX 1 4.3 22:43:30 43° NNE 22:43:30 43° NNE 22:46:55 10° N
SPOT 5 4.2 22:43:25 33° W 22:43:25 33° W 22:47:33 10° NNW
Cosmos 1553 Rocket 4.3 22:48:00 55° NE 22:48:00 55° NE 22:53:03 10° NNE
Cosmos 2263 Rocket 4.0 22:45:17 10° NW 22:49:17 20° W 22:50:09 20° WSW
H-2A R/B 4.0 21:55:07 10° W 22:50:52 48° SSW 22:51:40 47° S
COSMOS 2428 3.0 22:52:07 63° NW 22:52:07 63° NW 22:57:23 10° NNE
H-2A R/B 3.9 23:01:06 28° NNW 23:01:06 28° NNW 23:03:16 10° NNW
Cosmos 2360 Rocket 4.2 22:59:38 10° WSW 23:04:09 24° NW 23:08:43 10° N
Cosmos 1844 4.4 23:06:05 10° NNW 23:10:13 50° NNW 23:10:13 50° NNW
S3M 4.4 23:16:52 59° NNW 23:16:52 59° NNW 23:21:52 10° N
ATLAS 5 CENTAUR R/B 4.2 23:25:37 10° WNW 23:29:19 22° W 23:29:19 22° W
Cosmos 2333 Rocket 3.3 23:34:09 40° N 23:34:09 40° N 23:37:52 10° NNE
Cosmos 2237 Rocket 3.6 23:41:32 33° NNE 23:41:32 33° NNE 23:44:36 10° NNE
Cosmos 2278 Rocket 3.4 23:38:32 10° NNW 23:41:58 38° NNW 23:41:58 38° NNW
Terra 4.2 23:48:56 18° WNW 23:48:56 18° WNW 23:50:39 10° NW
